Russell, KS

5:38 PM CDT on May 25, 2017 (GMT -0500)
Russell Municipal

Weather History for KRSL - April, 2014

Change the Weather History Date:

Saturday, April 19, 2014

  Actual Average Record
Temperature  
Mean Temperature 70 °F -  
Max Temperature 84 °F 67 °F 92 °F (1961)
Min Temperature 55 °F 43 °F 26 °F (1953)
Cooling Degree Days 4    
Growing Degree Days 20 (Base 50)    
Moisture  
Dew Point 48 °F    
Average Humidity 51    
Maximum Humidity 72    
Minimum Humidity 29    
Precipitation  
Precipitation 0.00 in - - ()
Sea Level Pressure  
Sea Level Pressure 29.92 in    
Wind  
Wind Speed 23 mph (South)    
Max Wind Speed 37 mph    
Max Gust Speed 46 mph    
Visibility 10 miles    
Events      
Averages and records for this station are not official NWS values.
T = Trace of Precipitation, MM = Missing Value Source: NWS Daily Summary

Daily Weather History Graph

Daily Weather History Graph

Search for Another Location

Airport or City:

Trip Planner

Search our weather history database for the weather conditions in past years. The results will help you decide how hot, cold, wet, or windy it might be!

Date:

Astronomy

Apr. 19, 2014 Rise Set
Actual Time 6:53 AM CDT 8:16 PM CDT
Civil Twilight 6:25 AM CDT 8:44 PM CDT
Nautical Twilight 5:51 AM CDT 9:17 PM CDT
Astronomical Twilight 5:16 AM CDT 9:52 PM CDT
Moon 12:00 AM CDT (4/19) 10:14 AM CDT (4/19)
Length of Visible Light 14h 18m
Length of Day
13h 23m
Waning Gibbous, 78% of the Moon is Illuminated
Apr 19
Waning Gibbous
Apr 22
Last Quarter
Apr 29
New
May 6
First Quarter
May 14
Full

Hourly Weather History & Observations

Time (CDT) Temp. Dew Point Humidity Pressure Visibility Wind Dir Wind Speed Gust Speed Precip Events Conditions
12:53 AM 55.9 °F 42.1 °F 60% 30.01 in 10.0 mi South 18.4 mph - N/A   Clear
1:53 AM 55.9 °F 44.1 °F 64% 30.00 in 10.0 mi South 18.4 mph - N/A   Clear
2:53 AM 55.9 °F 46.0 °F 69% 29.98 in 10.0 mi South 20.7 mph - N/A   Clear
3:53 AM 55.4 °F 46.4 °F 72% 29.98 in 10.0 mi South 24.2 mph - N/A   Clear
4:53 AM 57.0 °F 46.9 °F 69% 29.95 in 10.0 mi South 24.2 mph 32.2 mph N/A   Clear
5:53 AM 57.0 °F 46.9 °F 69% 29.94 in 10.0 mi South 24.2 mph 33.4 mph N/A   Clear
6:53 AM 55.9 °F 46.0 °F 69% 29.95 in 10.0 mi South 23.0 mph - N/A   Clear
7:53 AM 57.9 °F 48.0 °F 70% 29.96 in 10.0 mi South 27.6 mph 33.4 mph N/A   Clear
8:53 AM 61.0 °F 48.0 °F 62% 29.97 in 10.0 mi South 28.8 mph 39.1 mph N/A   Clear
9:53 AM 66.0 °F 48.9 °F 54% 29.94 in 10.0 mi South 31.1 mph 38.0 mph N/A   Clear
10:53 AM 71.1 °F 48.9 °F 45% 29.92 in 10.0 mi South 31.1 mph 39.1 mph N/A   Clear
11:53 AM 75.9 °F 48.9 °F 38% 29.91 in 10.0 mi South 36.8 mph 46.0 mph N/A   Clear
12:53 PM 77.0 °F 48.9 °F 37% 29.90 in 10.0 mi South 29.9 mph 40.3 mph N/A   Clear
1:53 PM 81.0 °F 48.9 °F 33% 29.88 in 10.0 mi South 29.9 mph 40.3 mph N/A   Clear
2:53 PM 84.0 °F 48.9 °F 29% 29.87 in 10.0 mi SSW 27.6 mph 35.7 mph N/A   Clear
3:53 PM 81.0 °F 48.9 °F 33% 29.86 in 10.0 mi South 25.3 mph 35.7 mph N/A   Clear
4:53 PM 80.1 °F 48.0 °F 32% 29.86 in 10.0 mi South 31.1 mph 40.3 mph N/A   Clear
5:53 PM 78.1 °F 48.0 °F 35% 29.87 in 10.0 mi South 27.6 mph 38.0 mph N/A   Clear
6:53 PM 77.0 °F 48.9 °F 37% 29.88 in 10.0 mi South 23.0 mph 28.8 mph N/A   Clear
7:53 PM 73.0 °F 48.9 °F 42% 29.89 in 10.0 mi South 17.3 mph - N/A   Clear
8:53 PM 71.1 °F 50.0 °F 47% 29.89 in 10.0 mi North - - N/A   Clear
9:53 PM 68.0 °F 50.0 °F 52% 29.91 in 10.0 mi SSE 17.3 mph - N/A   Clear
10:53 PM 66.9 °F 50.0 °F 54% 29.93 in 10.0 mi South 18.4 mph - N/A   Clear
11:53 PM 64.9 °F 50.0 °F 58% 29.92 in 10.0 mi South 13.8 mph - N/A   Clear